TimeEST,TemperatureF,Dew PointF,Humidity,Sea Level PressureIn,VisibilityMPH,Wind Direction,Wind SpeedMPH,Gust SpeedMPH,PrecipitationIn,Events,Conditions,WindDirDegrees,DateUTC
12:53 AM,30.9,19.0,61,29.86,10.0,NNW,6.9,-,N/A,,Mostly Cloudy,330,2013-03-05 05:53:00
2:53 AM,30.0,19.9,66,29.88,10.0,NNW,3.5,-,N/A,,Mostly Cloudy,330,2013-03-05 07:53:00
4:53 AM,30.0,21.0,69,29.92,10.0,NNW,4.6,-,N/A,,Mostly Cloudy,330,2013-03-05 09:53:00
5:53 AM,28.9,19.9,69,29.94,10.0,Calm,Calm,-,N/A,,Clear,0,2013-03-05 10:53:00
6:53 AM,30.9,21.0,67,29.96,10.0,Calm,Calm,-,N/A,,Clear,0,2013-03-05 11:53:00
8:53 AM,36.0,21.9,57,29.99,10.0,NNW,12.7,23.0,N/A,,Clear,340,2013-03-05 13:53:00
9:53 AM,37.0,23.0,57,29.99,10.0,North,12.7,20.7,N/A,,Overcast,10,2013-03-05 14:53:00
10:53 AM,39.0,23.0,53,29.99,10.0,NNE,12.7,17.3,N/A,,Overcast,20,2013-03-05 15:53:00
11:53 AM,42.1,24.1,49,29.98,10.0,North,9.2,-,N/A,,Overcast,10,2013-03-05 16:53:00
12:53 PM,44.1,25.0,47,29.96,10.0,North,9.2,18.4,N/A,,Partly Cloudy,360,2013-03-05 17:53:00
1:53 PM,46.0,26.1,46,29.96,10.0,North,9.2,16.1,N/A,,Clear,10,2013-03-05 18:53:00
2:53 PM,46.9,27.0,46,29.98,10.0,NNE,8.1,-,N/A,,Clear,20,2013-03-05 19:53:00
3:53 PM,46.0,26.1,46,29.99,10.0,North,6.9,-,N/A,,Mostly Cloudy,360,2013-03-05 20:53:00
4:53 PM,46.0,26.1,46,29.99,10.0,North,6.9,-,N/A,,Overcast,10,2013-03-05 21:53:00
5:53 PM,45.0,26.1,48,30.00,10.0,NNE,6.9,-,N/A,,Overcast,30,2013-03-05 22:53:00
6:53 PM,44.1,26.1,49,30.02,10.0,North,6.9,-,N/A,,Overcast,10,2013-03-05 23:53:00
7:53 PM,44.1,26.1,49,30.03,10.0,Calm,Calm,-,N/A,,Overcast,0,2013-03-06 00:53:00
8:53 PM,42.1,27.0,55,30.03,10.0,Calm,Calm,-,N/A,,Overcast,0,2013-03-06 01:53:00
9:53 PM,42.1,26.1,53,30.05,10.0,Calm,Calm,-,N/A,,Overcast,0,2013-03-06 02:53:00
10:53 PM,39.0,26.1,60,30.03,10.0,NE,3.5,-,N/A,,Clear,50,2013-03-06 03:53:00
11:53 PM,35.1,26.1,70,30.03,10.0,NE,3.5,-,N/A,,Partly Cloudy,40,2013-03-06 04:53:00